Location: Oshawa
(43.9000°N, 78.8670°W)
Time: 07:49:38
(UTC-05:00)

S-56A Canister/Altair - All Passes

Search period start: 16 January 2017 00:00
Search period end: 26 January 2017 00:00
Orbit: 639 x 2495 km, 38.9° (Epoch: 15 January)

Date Brightness Start Highest point End Pass type
(mag) Time Alt. Az. Time Alt. Az. Time Alt. Az.
16 Jan - 02:24:32 10° S 02:33:23 19° SE 02:41:09 10° E visible
16 Jan - 04:25:25 10° SW 04:38:10 43° SSE 04:47:39 10° E visible
16 Jan - 06:30:54 10° WSW 06:43:16 63° S 06:51:32 10° E visible
16 Jan - 08:37:45 10° W 08:47:53 58° SSW 08:54:31 10° ESE daylight
16 Jan - 10:44:45 10° W 10:51:06 26° SW 10:55:53 10° SSE daylight
17 Jan - 01:52:27 10° S 02:00:32 17° SE 02:07:51 10° ESE visible
17 Jan - 03:52:21 10° SW 04:05:14 41° SSE 04:15:09 10° E visible
17 Jan - 05:57:30 10° WSW 06:10:28 63° S 06:19:18 10° E visible
17 Jan - 08:04:23 10° W 08:15:19 62° SSW 08:22:28 10° ESE daylight
17 Jan - 10:11:25 10° W 10:18:51 31° SW 10:24:11 10° SSE daylight
18 Jan - 01:20:41 10° SSE 01:27:41 15° SE 01:34:13 10° ESE visible
18 Jan - 03:19:22 10° SSW 03:32:16 39° SSE 03:42:34 10° E visible
18 Jan - 05:24:07 10° WSW 05:37:35 62° SSE 05:46:59 10° E visible
18 Jan - 07:30:57 10° W 07:42:40 64° S 07:50:22 10° ESE daylight
18 Jan - 09:38:05 10° W 09:46:31 36° SSW 09:52:25 10° SSE daylight
19 Jan - 00:49:27 10° SSE 00:54:51 13° SE 01:00:03 10° ESE visible
19 Jan - 02:46:29 10° SSW 02:59:17 36° SSE 03:09:53 10° E visible
19 Jan - 04:50:45 10° WSW 05:04:37 60° SSE 05:14:37 10° E visible
19 Jan - 06:57:30 10° W 07:09:57 67° S 07:18:12 10° ESE visible
19 Jan - 09:04:41 10° W 09:14:07 42° SSW 09:20:34 10° SE daylight
19 Jan - 11:14:22 10° WSW 11:16:25 11° SW 11:18:18 10° SW daylight
20 Jan - 00:19:33 10° SE 00:22:03 11° SE 00:24:32 10° ESE visible
20 Jan - 02:13:43 10° SSW 02:26:16 34° SE 02:37:05 10° E visible
20 Jan - 04:17:27 10° SW 04:31:37 59° SSE 04:42:12 10° E visible
20 Jan - 06:24:01 10° W 06:37:08 68° S 06:45:59 10° ESE visible
20 Jan - 08:31:16 10° W 08:41:39 47° SSW 08:48:37 10° SE daylight
20 Jan - 10:39:51 10° W 10:44:14 15° SW 10:47:54 10° SSW daylight
21 Jan - 01:41:06 10° SSW 01:53:16 31° SE 02:04:10 10° E visible
21 Jan - 03:44:13 10° SW 03:58:33 57° SSE 04:09:41 10° E visible
21 Jan - 05:50:33 10° W 06:04:14 69° S 06:13:42 10° E visible
21 Jan - 07:57:48 10° W 08:09:05 52° SSW 08:16:38 10° SE daylight
21 Jan - 10:05:56 10° W 10:12:00 19° SW 10:16:47 10° S daylight
22 Jan - 01:08:37 10° S 01:20:16 29° SE 01:31:06 10° E visible
22 Jan - 03:11:04 10° SW 03:25:27 54° SSE 03:37:06 10° E visible
22 Jan - 05:17:05 10° WSW 05:31:16 70° S 05:41:22 10° E visible
22 Jan - 07:24:19 10° W 07:36:26 56° SSW 07:44:34 10° SE daylight
22 Jan - 09:32:12 10° W 09:39:43 24° SW 09:45:22 10° S daylight
23 Jan - 00:36:18 10° S 00:47:18 26° SE 00:57:52 10° E visible
23 Jan - 02:38:01 10° SW 02:52:19 52° SSE 03:04:25 10° E visible
23 Jan - 04:43:40 10° WSW 04:58:14 70° S 05:08:58 10° E visible
23 Jan - 06:50:49 10° W 07:03:41 60° SSW 07:12:26 10° ESE visible
23 Jan - 08:58:34 10° W 09:07:21 29° SW 09:13:46 10° SSE daylight
24 Jan - 00:04:11 10° S 00:14:22 23° SE 00:24:27 10° E visible
24 Jan - 02:05:04 10° SW 02:19:10 49° SSE 02:31:38 10° E visible
24 Jan - 04:10:18 10° WSW 04:25:07 69° S 04:36:29 10° E visible
24 Jan - 06:17:19 10° W 06:30:51 64° SSW 06:40:14 10° ESE visible
24 Jan - 08:24:57 10° W 08:34:54 33° SW 08:42:02 10° SSE daylight
24 Jan - 23:32:18 10° S 23:41:29 20° SE 23:50:47 10° E night (unlit)
25 Jan - 01:32:14 10° SW 01:46:01 46° SSE 01:58:46 10° E visible
25 Jan - 03:36:59 10° WSW 03:51:57 68° S 04:03:55 10° E visible
25 Jan - 05:43:50 10° W 05:57:55 67° SSW 06:07:57 10° ESE visible
25 Jan - 07:51:21 10° W 08:02:22 38° SW 08:10:11 10° SSE daylight
25 Jan - 23:00:43 10° SSE 23:08:39 17° SE 23:16:49 10° E night (unlit)
